Regional Weather Roundup
Issued by NWS

Home | Current Version | Previous Version | Graphics & Text | Print | Product List | Glossary On
Versions: 1 2 3 4 5 6 7 8 9 10 11 12 13 14 15 16 17 18 19 20 21 22 23 24 25 26 27 28 29 30 31 32 33 34 35 36 37 38 39 40 41 42 43 44 45 46 47 48 49 50
000
ASUS45 KBOI 220410
RWRID
WEATHER ROUNDUP FOR IDAHO
NATIONAL WEATHER SERVICE BOISE ID
1000 PM MDT MON JUL 21 2014

NOTE: "FAIR" INDICATES FEW OR NO CLOUDS BELOW 12000 FEET
WITH NO SIGNIFICANT WEATHER AND/OR OBSTRUCTIONS TO VISIBILITY

IDZ012-014-220500-
SOUTHWEST IDAHO


CITY           SKY/WX    TMP DP  RH WIND       PRES   REMARKS
BOISE          MOCLDY    76  53  44 SE9       30.04R
CALDWELL       MOCLDY    77  48  36 SW6       30.04R
MOUNTAIN HOME  MOCLDY    72  59  64 E2        30.06R
$$

IDZ016-017-220500-
SOUTHCENTRAL IDAHO


CITY           SKY/WX    TMP DP  RH WIND       PRES   REMARKS
BURLEY         PTCLDY    68  58  70 SE3       30.13R
JEROME         PTCLDY    65  54  67 E6        30.13R
TWIN FALLS     CLEAR     66  57  72 S3        30.15R
$$

IDZ019>023-220500-
SOUTHEAST IDAHO


CITY           SKY/WX    TMP DP  RH WIND       PRES   REMARKS
IDAHO FALLS    MOCLDY    71  47  42 SW14      30.15R
POCATELLO      MOCLDY    64  58  80 W10       30.16F
REXBURG        MOCLDY    68  49  50 SW6       30.15R
$$

IDZ006-010-011-018-031-032-220500-
CENTRAL IDAHO MOUNTAINS


CITY           SKY/WX    TMP DP  RH WIND       PRES   REMARKS
MCCALL         MOCLDY    63  48  58 SE12      30.14R
STANLEY          N/A     57  50  77 SE3       30.25R
SALMON         MOCLDY    72  46  40 SE6       30.01R
CHALLIS        CLOUDY    68  46  45 CALM      30.12R
$$

IDZ002-004-006-007-026-220500-
NORTHERN IDAHO


CITY           SKY/WX    TMP DP  RH WIND       PRES   REMARKS
LEWISTON       CLOUDY    78  37  22 E3        29.95R
LOWELL           N/A     68  52  56 CALM      29.99R
COEUR D`ALENE  CLOUDY    68  48  49 MISG      30.01R
MULLAN PASS    PTCLDY    56  32  40 SE3       30.19R
$$



USA.gov is the U.S. government's official web portal to all federal, state and local government web resources and services.